STARLINK-3340 (50824 NORAD) Tracking and Keplerian Element Data

This shows tracking and keplerian element data for the satellite.

Feedback or suggestion? Click here.




ElementValue
Catalog50824
NameSTARLINK-3340
Epoch Orbit388
Epoch Day23.25001157
Epoch Year2022
RAAN118.1122
Inclination53.2177
Eccentricity0.0001147
Argument of Perigee54.8251
Mean Anonmoly348.0707
Mean Motion15.74634295
Decay Rate-0.00817783
L11 50824U 22001X 22023.25001157 -.00817783 00000+0 -60258-2 0 9992
L22 50824 53.2177 118.1122 0001147 54.8251 348.0707 15.74634295 3884

Live tracking and technical data element details for STARLINK-3340 (NORAD 50824). STARLINK-3340 can be tracked NOW for your location showing map with azimuth and elevation plus other details from your city location.

Track the satellite on the map from your city or location and see movement details for azimuth, elevation, latitude, longitude, range, height, and movement on the map or in text.







IsCatalogInMostPopularTable: catalog: 50824, numindb: 2
Update: records affected: 1



GetName: 50824 STARLINK-3340

Hit Count: updated at: Sun, 23 Jan 2022 23:50:16 GMT